Temp
84 84 83 83 82 82 82 81 81 81 81 81 81 81 81 81 82 82 82 82 82 81 82 81 81 80 80 80 80 79 78 79 79 79 79 78 77 76 75 75 74 74
84 84 83 83 82 82 83 83 82 81 81 81 81 81 81 81 82 82 81 81 81 82 82 82 81 80 80 80 80 79 78 78 78 80 78 78 78 78 77 76 75 74
84 84 83 82 83 83 83 83 82 82 82 83 82 81 81 82 82 82 81 81 81 81 81 81 81 81 80 80 79 79 78 78 77 80 77 77 78 77 76 75 74 75
84 83 83 83 83 83 83 82 82 82 83 82 82 83 82 82 82 81 81 81 80 81 81 81 81 81 81 80 80 79 79 78 78 78 76 77 78 77 77 76 76 76
84 83 83 83 83 82 82 81 82 83 83 82 83 83 82 81 81 81 81 81 81 81 82 81 82 81 81 80 80 78 79 78 79 78 77 76 77 78 78 77 76 76
84 83 83 82 82 82 82 82 82 82 82 82 82 83 83 82 81 81 81 81 82 82 82 82 81 81 81 80 79 78 78 78 78 78 77 76 77 78 78 77 76 75
83 83 83 83 83 82 82 82 82 82 82 82 82 81 82 82 81 81 81 81 81 80 80 80 80 80 80 79 78 78 78 78 78 77 76 76 76 76 78 77 76 75
83 84 84 83 82 82 82 82 82 82 83 82 82 82 82 82 81 81 81 81 81 80 80 80 80 80 81 79 78 77 78 79 78 77 76 76 76 75 76 77 77 75
83 83 83 82 82 82 83 84 86 85 85 83 83 83 83 82 82 81 80 80 80 80 80 80 80 80 80 79 78 77 77 77 78 77 76 76 75 75 76 76 76 75
83 83 82 84 85 84 84 85 86 86 86 85 84 84 83 82 82 81 81 80 80 79 80 80 80 79 79 79 78 78 77 77 77 77 77 76 76 76 76 76 75 74
83 83 83 83 83 86 86 87 88 88 86 84 83 83 84 84 83 84 81 80 80 80 79 79 79 79 79 79 79 79 78 78 77 77 77 76 76 76 75 75 75 75
83 83 83 84 84 84 85 85 84 83 85 86 87 87 85 85 83 83 82 80 80 79 79 77 76 78 79 79 79 79 79 78 77 77 77 77 77 77 77 77 76 75
84 83 83 84 83 83 83 84 85 86 86 85 85 85 85 85 85 83 83 81 80 80 79 79 77 77 78 79 78 78 78 77 77 76 77 77 77 77 78 78 78 76
84 84 83 83 83 82 82 82 82 82 81 82 83 83 84 84 84 83 83 82 81 81 81 80 79 80 79 79 78 78 78 77 76 76 76 76 76 77 78 79 78 77
83 83 83 83 82 82 81 81 81 81 81 81 82 82 83 84 84 83 81 80 81 81 81 81 79 79 80 79 78 78 77 77 77 76 76 75 76 77 77 77 78 77
82 82 82 82 81 81 80 81 81 81 81 81 81 82 82 81 80 80 81 80 80 80 80 80 80 79 70 68 70 75 76 76 76 75 75 75 75 74 76 77 77 77
81 81 81 81 81 81 81 80 80 80 80 80 80 80 80 79 80 80 80 81 81 80 80 80 78 76 66 66 66 67 73 75 75 74 75 75 75 75 74 75 76 76
81 81 81 81 81 80 80 80 80 80 79 80 80 80 80 80 80 79 79 80 81 81 80 79 80 71 61 64 65 65 67 73 75 75 75 75 76 75 75 75 74 74
81 81 81 80 80 81 80 80 79 79 79 80 80 81 81 79 78 79 79 80 80 79 79 80 81 69 61 63 64 64 64 67 74 74 74 75 75 75 75 74 74 72
81 81 80 80 81 80 80 80 79 79 80 81 81 80 80 79 79 79 80 79 79 79 79 80 80 70 61 62 62 62 62 65 74 74 74 74 71 70 71 73 73 72
81 81 80 80 80 80 80 79 79 79 79 80 81 80 79 79 79 79 79 80 81 81 81 80 81 65 60 61 60 59 60 63 72 73 74 73 71 72 71 73 73 72
82 81 80 80 80 80 80 79 79 79 79 80 80 81 80 81 80 81 80 81 81 81 81 79 82 62 60 59 59 58 59 68 73 73 73 73 72 69 70 73 73 72
82 82 81 80 80 80 80 80 79 79 80 81 79 80 80 80 79 81 81 81 81 80 79 75 78 70 58 57 57 57 60 73 74 74 71 68 69 74 75 74 74 73
83 82 81 81 81 80 80 80 81 81 81 81 80 80 80 81 81 81 81 81 81 81 80 77 78 71 55 53 53 55 61 73 73 71 70 69 71 74 75 74 74 69
84 83 82 82 81 81 81 81 81 81 82 82 82 81 80 79 81 81 81 81 83 78 73 76 78 70 53 53 53 55 60 71 72 71 70 71 72 73 74 74 74 72
83 82 81 82 81 81 81 81 82 82 82 83 81 82 82 82 82 81 79 81 81 79 79 79 76 72 64 52 54 54 56 66 71 71 71 71 72 72 72 73 73 73
MSLP
1016.04 1016.12 1016.32 1016.36 1016.40 1016.36 1016.44 1016.52 1016.40 1016.44 1016.36 1016.16 1016.20 1015.96 1015.88 1015.72 1015.52 1015.44 1015.32 1015.20 1015.12 1015.08 1014.92 1014.88 1014.76 1014.76 1014.64 1014.64 1014.60 1014.48 1014.44 1014.24 1014.16 1013.92 1013.88 1013.84 1013.96 1013.96 1014.00 1014.00 1014.12 1014.12
1015.96 1016.00 1016.16 1016.24 1016.32 1016.24 1016.12 1016.04 1016.12 1016.16 1016.20 1016.04 1015.96 1015.88 1015.72 1015.64 1015.48 1015.32 1015.32 1015.28 1015.04 1014.92 1014.72 1014.72 1014.76 1014.68 1014.60 1014.60 1014.44 1014.48 1014.44 1014.32 1014.20 1013.80 1013.92 1013.88 1013.72 1013.68 1013.72 1013.80 1013.88 1013.80
1015.84 1015.96 1016.08 1016.24 1016.20 1016.12 1016.08 1016.00 1016.00 1015.96 1015.84 1015.72 1015.68 1015.68 1015.64 1015.40 1015.36 1015.24 1015.20 1015.16 1015.08 1014.92 1014.76 1014.60 1014.60 1014.52 1014.44 1014.36 1014.36 1014.40 1014.40 1014.28 1014.20 1013.84 1013.96 1013.88 1013.64 1013.68 1013.72 1013.60 1013.56 1013.48
1015.76 1015.84 1015.96 1016.00 1016.04 1016.08 1015.96 1016.04 1015.96 1015.84 1015.68 1015.64 1015.60 1015.44 1015.40 1015.28 1015.24 1015.20 1015.12 1015.00 1015.00 1014.84 1014.68 1014.60 1014.56 1014.44 1014.32 1014.24 1014.20 1014.20 1014.20 1014.16 1014.00 1013.96 1014.12 1013.84 1013.56 1013.56 1013.48 1013.32 1013.32 1013.16
1015.60 1015.72 1015.76 1015.84 1015.84 1015.88 1015.96 1016.04 1015.96 1015.76 1015.72 1015.56 1015.44 1015.32 1015.28 1015.24 1015.16 1015.12 1015.00 1014.92 1014.80 1014.68 1014.52 1014.48 1014.32 1014.32 1014.24 1014.24 1014.20 1014.24 1014.08 1014.00 1013.80 1013.72 1013.84 1013.84 1013.56 1013.44 1013.32 1013.28 1013.28 1013.12
1015.44 1015.52 1015.64 1015.76 1015.80 1015.84 1015.92 1015.88 1015.76 1015.72 1015.64 1015.60 1015.48 1015.24 1015.16 1015.12 1015.12 1015.00 1014.92 1014.88 1014.64 1014.60 1014.52 1014.36 1014.36 1014.24 1014.16 1014.16 1014.12 1014.12 1014.04 1013.96 1013.72 1013.68 1013.76 1013.76 1013.56 1013.24 1013.20 1013.16 1013.12 1013.08
1015.44 1015.44 1015.56 1015.52 1015.60 1015.60 1015.72 1015.68 1015.60 1015.56 1015.48 1015.40 1015.32 1015.36 1015.16 1015.08 1015.04 1014.96 1014.84 1014.68 1014.60 1014.52 1014.44 1014.40 1014.32 1014.24 1014.04 1014.00 1014.04 1014.08 1013.88 1013.84 1013.68 1013.64 1013.72 1013.60 1013.44 1013.32 1013.08 1013.08 1013.04 1012.92
1015.20 1015.16 1015.20 1015.32 1015.52 1015.52 1015.56 1015.52 1015.48 1015.32 1015.12 1015.12 1015.24 1015.08 1014.92 1014.92 1014.88 1014.84 1014.68 1014.60 1014.56 1014.40 1014.28 1014.16 1014.08 1014.00 1013.92 1013.92 1014.00 1014.00 1013.88 1013.68 1013.60 1013.56 1013.64 1013.52 1013.36 1013.36 1013.12 1012.88 1012.80 1012.80
1015.00 1015.12 1015.16 1015.32 1015.44 1015.40 1015.32 1015.16 1014.80 1014.48 1014.48 1014.72 1014.84 1014.76 1014.68 1014.68 1014.68 1014.64 1014.60 1014.48 1014.40 1014.28 1014.16 1014.04 1013.92 1013.84 1013.80 1013.84 1013.88 1013.88 1013.80 1013.68 1013.52 1013.52 1013.52 1013.48 1013.36 1013.28 1013.08 1012.84 1012.80 1012.68
1014.96 1015.00 1015.12 1015.12 1015.08 1014.96 1015.00 1014.84 1014.56 1014.40 1014.00 1014.16 1014.36 1014.40 1014.48 1014.40 1014.36 1014.36 1014.36 1014.36 1014.28 1014.20 1014.04 1013.92 1013.80 1013.68 1013.64 1013.64 1013.72 1013.68 1013.64 1013.56 1013.44 1013.40 1013.32 1013.20 1013.16 1013.08 1012.96 1012.84 1012.76 1012.64
1014.84 1014.84 1014.96 1015.00 1015.00 1014.80 1014.68 1014.40 1014.12 1014.04 1014.16 1014.44 1014.44 1014.32 1014.08 1013.92 1013.84 1013.76 1014.04 1014.20 1014.20 1014.00 1013.96 1013.84 1013.68 1013.56 1013.56 1013.52 1013.40 1013.32 1013.36 1013.24 1013.28 1013.20 1013.08 1013.00 1012.96 1012.88 1012.76 1012.68 1012.56 1012.44
1014.60 1014.68 1014.76 1014.72 1014.72 1014.72 1014.64 1014.56 1014.52 1014.56 1014.40 1013.96 1013.64 1013.72 1013.84 1013.80 1013.80 1013.64 1013.76 1014.04 1014.00 1013.84 1013.76 1013.88 1013.84 1013.52 1013.24 1013.20 1013.16 1013.12 1013.04 1012.96 1013.04 1012.96 1012.84 1012.68 1012.68 1012.60 1012.40 1012.24 1012.20 1012.16
1014.36 1014.48 1014.52 1014.48 1014.48 1014.52 1014.48 1014.52 1014.44 1014.28 1014.12 1014.24 1014.12 1014.08 1014.04 1013.88 1013.60 1013.56 1013.48 1013.68 1013.68 1013.56 1013.60 1013.56 1013.56 1013.44 1013.12 1013.04 1013.04 1013.00 1012.92 1012.92 1012.92 1012.88 1012.68 1012.52 1012.40 1012.28 1012.08 1011.84 1011.76 1011.84
1014.20 1014.20 1014.28 1014.44 1014.44 1014.44 1014.52 1014.56 1014.52 1014.52 1014.44 1014.32 1014.20 1014.16 1013.92 1013.72 1013.60 1013.48 1013.32 1013.40 1013.36 1013.28 1013.16 1013.04 1013.04 1012.92 1012.80 1012.84 1012.88 1012.84 1012.80 1012.80 1012.80 1012.84 1012.64 1012.44 1012.24 1012.04 1011.80 1011.60 1011.52 1011.48
1014.04 1014.08 1014.12 1014.24 1014.32 1014.40 1014.52 1014.56 1014.52 1014.44 1014.32 1014.16 1014.04 1013.92 1013.72 1013.60 1013.40 1013.32 1013.52 1013.52 1013.28 1013.12 1012.96 1012.84 1012.84 1012.72 1012.56 1012.76 1012.76 1012.72 1012.76 1012.76 1012.60 1012.48 1012.44 1012.28 1012.04 1011.80 1011.60 1011.44 1011.32 1011.20
1013.92 1014.04 1014.16 1014.16 1014.28 1014.40 1014.40 1014.40 1014.32 1014.24 1014.12 1014.04 1013.92 1013.80 1013.68 1013.56 1013.60 1013.60 1013.52 1013.32 1013.12 1012.96 1012.76 1012.64 1012.48 1012.52 1013.16 1013.04 1013.00 1012.80 1012.68 1012.56 1012.44 1012.36 1012.24 1012.08 1011.92 1011.72 1011.48 1011.20 1011.08 1011.08
1013.84 1014.00 1014.00 1014.16 1014.16 1014.16 1014.20 1014.24 1014.24 1014.16 1014.08 1013.92 1013.84 1013.72 1013.64 1013.60 1013.56 1013.48 1013.32 1013.08 1012.92 1012.84 1012.72 1012.48 1012.60 1012.68 1012.64 1012.64 1012.64 1012.68 1012.60 1012.48 1012.40 1012.20 1011.96 1011.80 1011.60 1011.48 1011.36 1011.16 1010.96 1010.76
1013.64 1013.72 1013.88 1013.92 1013.92 1014.00 1014.00 1014.00 1014.00 1014.00 1013.96 1013.84 1013.76 1013.60 1013.40 1013.32 1013.40 1013.36 1013.24 1013.00 1012.72 1012.60 1012.56 1012.40 1012.16 1012.12 1012.32 1012.36 1012.40 1012.48 1012.52 1012.40 1012.20 1012.04 1011.80 1011.60 1011.40 1011.20 1010.96 1010.88 1010.84 1010.68
1013.36 1013.52 1013.64 1013.68 1013.72 1013.72 1013.72 1013.80 1013.88 1013.88 1013.80 1013.72 1013.60 1013.28 1013.16 1013.32 1013.28 1013.08 1012.92 1012.64 1012.52 1012.52 1012.48 1012.12 1011.88 1011.84 1012.00 1012.04 1012.12 1012.24 1012.32 1012.36 1012.12 1011.84 1011.68 1011.44 1011.28 1011.04 1010.80 1010.64 1010.56 1010.56
1013.08 1013.24 1013.40 1013.40 1013.40 1013.44 1013.48 1013.60 1013.72 1013.72 1013.52 1013.32 1013.20 1013.04 1013.04 1013.00 1012.92 1012.84 1012.60 1012.44 1012.32 1012.20 1012.08 1011.80 1011.60 1011.48 1011.68 1011.80 1011.92 1012.04 1012.12 1012.24 1011.92 1011.72 1011.52 1011.44 1011.60 1011.60 1011.16 1010.52 1010.40 1010.40
1012.76 1012.92 1013.08 1013.12 1013.12 1013.20 1013.28 1013.36 1013.40 1013.40 1013.32 1013.16 1013.04 1012.96 1012.88 1012.84 1012.76 1012.68 1012.36 1012.12 1011.96 1011.76 1011.64 1011.52 1011.24 1011.28 1011.48 1011.56 1011.68 1011.80 1011.92 1012.12 1011.80 1011.56 1011.36 1011.24 1011.20 1011.00 1011.04 1010.32 1010.08 1010.00
1012.40 1012.64 1012.76 1012.84 1012.96 1012.96 1013.08 1013.12 1013.08 1013.08 1013.12 1012.88 1012.88 1012.72 1012.52 1012.44 1012.32 1012.08 1012.00 1011.84 1011.68 1011.56 1011.52 1011.52 1011.16 1011.28 1011.32 1011.40 1011.48 1011.60 1011.88 1011.88 1011.52 1011.40 1011.16 1010.96 1010.88 1010.96 1010.68 1009.88 1009.76 1009.76
1011.96 1012.20 1012.44 1012.60 1012.64 1012.76 1012.80 1012.80 1012.80 1012.80 1012.68 1012.48 1012.64 1012.56 1012.48 1012.36 1012.20 1011.92 1011.64 1011.60 1011.44 1011.40 1011.60 1012.08 1011.60 1011.04 1011.20 1011.24 1011.36 1011.60 1011.88 1011.52 1011.28 1011.16 1011.36 1011.60 1011.08 1010.08 1009.76 1009.64 1009.48 1009.48
1011.48 1011.76 1012.00 1012.20 1012.28 1012.48 1012.48 1012.36 1012.24 1012.16 1012.20 1012.04 1012.32 1012.32 1012.24 1012.00 1011.80 1011.64 1011.36 1011.24 1011.32 1011.24 1011.44 1011.76 1011.60 1011.44 1011.36 1011.24 1011.32 1011.52 1011.52 1011.36 1011.20 1011.20 1011.20 1011.12 1010.72 1009.96 1009.64 1009.44 1009.28 1009.28
1011.16 1011.36 1011.64 1011.76 1011.88 1011.96 1011.92 1011.96 1011.92 1011.92 1011.76 1011.72 1011.80 1011.80 1011.84 1011.76 1011.40 1011.32 1011.20 1011.12 1011.24 1011.64 1011.40 1011.48 1011.36 1011.68 1011.88 1011.56 1011.56 1011.68 1011.76 1011.36 1011.16 1011.16 1011.16 1010.92 1010.44 1009.96 1009.56 1009.36 1009.12 1008.96
1010.84 1011.12 1011.28 1011.40 1011.48 1011.48 1011.48 1011.52 1011.44 1011.44 1011.52 1011.44 1011.56 1011.32 1011.24 1011.04 1011.04 1011.16 1011.32 1011.16 1011.08 1011.32 1011.32 1011.16 1011.16 1011.56 1011.92 1011.76 1011.52 1011.64 1011.76 1011.52 1011.16 1011.08 1010.96 1010.64 1010.32 1010.04 1009.76 1009.32 1009.04 1008.84
Wind_Speed
2 2 3 3 3 3 4 4 5 6 6 6 6 6 6 6 7 7 7 6 6 7 6 6 5 5 5 5 6 7 7 7 7 7 8 7 8 9 9 9 11 10
3 3 2 3 3 4 4 4 5 5 6 6 6 6 6 6 7 6 6 7 7 7 6 6 5 6 6 6 6 7 6 7 8 6 8 10 9 8 8 11 12 7
3 3 4 4 4 5 5 5 5 6 6 6 6 6 6 6 6 6 6 7 7 7 7 6 6 6 7 6 6 6 6 7 8 8 8 9 8 7 7 8 7 10
4 4 4 4 4 5 4 5 6 5 6 5 5 5 5 5 6 6 6 7 6 7 6 6 6 7 7 7 7 6 7 7 7 7 7 7 7 8 8 7 7 9
4 4 4 4 4 4 5 6 6 6 6 5 5 5 5 6 6 6 6 6 7 7 6 6 6 6 6 6 6 7 7 7 7 7 7 8 7 8 8 8 10 11
4 4 4 4 5 5 5 5 6 6 6 6 6 6 6 6 6 7 7 8 7 7 7 7 7 7 7 6 6 6 6 7 8 8 8 7 8 8 8 9 10 11
5 5 5 5 5 5 6 6 6 6 6 6 6 7 7 7 7 7 8 7 7 7 7 7 7 7 6 6 5 6 6 7 8 8 8 8 8 9 10 10 10 11
6 5 5 5 5 5 6 6 6 7 7 7 7 7 7 7 7 7 7 8 8 8 7 7 7 7 6 6 6 7 7 6 7 8 9 10 9 10 10 9 10 11
5 5 5 6 6 6 7 7 8 7 5 6 7 7 6 6 7 8 8 8 8 8 8 7 7 7 6 6 7 8 7 7 7 8 9 10 10 10 10 10 11 11
5 5 6 6 7 6 7 7 7 8 8 6 6 7 7 7 7 7 7 8 9 9 8 8 7 7 7 7 8 8 8 8 8 8 8 9 10 10 10 10 11 11
6 6 6 7 7 6 7 8 8 8 8 8 8 9 9 7 7 6 6 8 9 9 9 8 8 8 9 9 8 7 9 9 8 8 9 9 9 9 9 10 10 10
6 6 6 6 6 6 7 7 7 7 8 9 8 9 9 9 9 7 5 8 9 9 8 8 9 10 9 9 9 9 9 9 8 9 9 9 9 9 10 9 9 9
5 5 5 6 5 5 5 6 7 9 10 10 9 10 10 10 10 9 7 7 9 8 8 9 8 10 9 8 8 9 9 9 9 9 10 9 9 9 10 10 9 9
5 5 5 5 5 5 6 6 7 8 8 8 8 9 10 10 11 10 8 8 9 9 8 9 9 9 8 7 8 9 9 9 9 10 11 11 10 10 10 10 9 10
4 4 4 5 6 6 6 6 7 8 8 9 8 8 8 10 10 10 9 10 9 9 9 8 8 8 6 5 7 8 8 10 10 10 10 11 10 10 10 10 9 9
5 5 5 6 6 6 6 7 7 8 8 8 8 9 9 9 9 9 10 10 10 9 8 8 7 4 5 6 7 8 9 8 9 9 10 10 10 10 10 10 9 9
6 6 6 7 7 6 6 6 7 7 8 8 8 9 9 8 8 9 10 9 10 9 9 8 6 2 9 10 11 10 7 8 9 10 10 10 10 10 10 10 10 10
7 7 7 7 7 7 6 6 7 8 8 8 8 9 8 7 8 9 9 10 9 9 9 9 9 4 11 10 11 10 8 7 8 9 9 9 10 10 9 9 10 10
8 8 8 7 7 7 6 6 7 8 8 8 8 8 7 8 8 9 8 8 8 9 9 9 9 5 10 10 11 11 10 9 8 10 10 10 11 11 10 10 9 9
8 8 8 8 7 7 7 7 7 7 7 7 7 8 7 8 8 9 9 8 8 8 8 9 9 5 10 9 10 11 10 8 9 10 10 9 8 11 12 10 9 9
9 9 8 8 8 8 8 8 7 7 7 7 7 8 8 7 7 8 8 8 8 8 8 8 8 5 10 10 10 11 10 8 8 9 9 8 8 10 11 12 10 9
10 9 8 8 8 8 8 8 8 7 7 6 7 7 7 7 8 8 8 8 8 8 9 9 8 8 9 10 10 10 7 6 8 9 10 9 9 10 12 9 9 9
10 9 8 8 8 8 8 8 8 7 7 7 7 7 7 7 8 8 7 8 9 8 7 8 10 5 9 9 9 7 5 6 7 7 8 10 12 11 10 10 9 8
9 9 9 9 8 9 9 9 8 7 7 6 7 7 8 7 7 7 7 7 8 10 8 9 10 11 4 8 8 9 6 6 6 6 8 8 12 11 10 9 10 10
9 9 9 9 9 9 9 9 8 7 7 6 7 7 7 7 8 7 7 7 8 10 7 7 7 5 5 2 3 3 4 4 5 6 7 9 11 11 10 9 10 9
8 9 9 9 9 9 8 8 7 8 9 8 8 7 7 7 6 7 8 8 5 7 9 10 6 3 4 6 6 5 4 3 5 6 8 9 10 10 11 10 9 9
Wind_Direction
262 262 288 290 296 303 298 299 297 300 300 301 302 309 313 313 310 311 315 314 318 308 309 302 291 291 295 311 307 301 299 295 293 292 297 293 289 287 287 287 288 290
249 259 269 282 278 263 275 281 291 295 295 291 290 295 300 300 302 307 316 314 311 310 308 308 304 303 304 307 305 307 305 304 297 302 301 301 303 295 297 310 311 297
241 258 258 264 274 297 300 295 293 292 291 304 305 290 283 289 299 305 309 310 307 308 307 305 306 301 301 299 298 296 303 298 295 303 310 308 302 303 305 287 272 288
236 241 263 269 276 279 279 287 288 283 288 291 302 304 298 297 297 300 302 306 303 300 305 307 308 310 312 307 309 305 307 298 302 313 297 291 304 308 300 287 271 286
232 238 240 255 276 281 278 276 279 291 296 305 299 293 292 294 298 299 301 303 301 297 293 299 303 307 305 305 304 302 305 307 310 311 311 306 306 313 315 314 308 305
233 235 238 253 252 260 273 281 287 289 295 297 303 308 306 306 297 302 306 302 299 303 299 302 306 305 311 308 301 293 300 308 314 310 301 303 308 308 316 318 315 308
236 229 238 244 248 255 264 270 277 281 283 292 301 291 293 292 297 302 302 296 299 301 303 302 297 300 304 307 298 296 298 301 302 304 305 305 304 305 312 317 314 310
229 235 239 237 250 261 263 264 271 272 265 263 273 286 291 302 303 303 297 300 297 299 301 297 295 294 300 303 299 296 292 299 303 305 307 305 305 309 310 316 318 314
235 234 228 238 249 258 258 256 263 277 294 276 270 277 282 290 295 294 294 292 294 291 293 291 286 284 290 291 295 290 285 294 297 300 302 301 302 307 310 316 314 317
226 227 238 253 254 249 257 264 271 262 256 285 304 299 292 287 281 282 287 292 291 287 282 283 280 282 280 287 285 280 281 283 294 301 299 298 301 305 310 312 313 316
225 231 233 237 248 260 270 274 290 315 330 313 286 272 279 285 280 275 287 292 287 287 286 283 283 285 283 282 276 277 280 285 293 297 297 295 299 300 303 307 310 314
221 237 250 259 271 282 284 293 298 285 270 266 282 308 312 300 295 293 302 297 294 288 299 301 290 283 277 280 283 285 285 285 289 291 293 292 297 299 301 307 311 315
230 234 246 257 258 263 273 280 287 299 311 317 311 299 299 294 294 299 296 289 286 281 273 273 277 279 281 282 281 278 274 281 286 290 289 295 297 295 298 304 311 316
238 244 245 251 261 271 273 281 290 294 293 293 293 289 289 295 299 298 301 300 302 299 293 287 282 281 280 280 277 271 277 283 290 293 292 296 293 293 293 303 311 310
235 239 241 248 251 251 264 273 281 283 280 279 282 288 293 298 297 301 307 300 290 287 287 281 271 269 280 295 287 286 290 287 286 288 291 293 293 295 295 300 307 312
218 223 234 245 250 255 260 271 274 282 288 288 292 295 295 296 305 299 287 283 287 291 289 281 278 303 32 306 301 281 287 290 290 290 291 290 291 292 289 296 308 313
212 218 229 236 243 248 253 262 275 278 278 284 290 293 296 295 286 288 292 294 294 293 288 287 289 237 178 220 227 237 256 277 282 286 288 289 289 287 292 297 303 308
212 221 224 234 238 246 252 259 272 278 278 280 286 289 291 293 294 296 294 288 288 291 293 290 289 165 186 206 220 215 223 256 276 284 286 289 291 292 290 295 305 309
213 219 225 230 235 241 249 259 263 271 272 275 284 292 296 293 289 283 285 291 291 292 289 286 285 195 190 202 215 217 217 233 265 274 281 289 297 295 292 296 305 305
210 219 226 231 233 238 245 254 264 265 271 279 286 284 282 288 294 291 293 292 289 285 283 283 285 216 195 201 217 217 221 223 261 271 280 297 311 299 295 291 293 298
213 217 227 231 234 239 245 253 255 259 267 277 282 290 291 292 299 295 285 288 293 296 296 299 296 161 189 203 214 218 217 221 260 267 277 277 269 277 279 277 290 291
214 218 225 232 239 243 248 247 248 254 262 267 274 277 286 291 283 286 288 288 293 294 294 297 300 168 201 203 214 218 200 233 254 266 276 285 278 267 272 282 287 287
213 218 223 232 236 242 244 243 243 251 256 254 262 273 276 281 289 289 295 289 290 300 302 301 292 238 199 208 212 198 191 254 270 288 306 307 302 301 302 292 286 281
214 215 224 232 236 241 240 241 243 243 250 251 264 279 280 283 288 283 280 293 298 295 338 329 317 325 228 204 202 189 227 274 291 295 294 292 292 304 306 300 296 281
216 218 227 237 236 236 240 246 244 246 250 256 266 260 266 272 269 282 295 300 321 326 320 305 304 341 282 204 174 167 228 269 285 286 287 294 307 309 309 307 304 300
222 223 227 236 241 240 243 245 244 244 244 244 244 262 282 292 301 299 298 296 307 294 297 299 306 338 250 167 151 169 230 297 293 285 296 305 307 309 308 303 305 304